User: anonymous
Location: Vancouver
(49.2500°N, 123.1330°W)
Time: 23:13:02
(UTC-07:00)
Language:

YAOGAN 6 - Orbit

View from above orbital plane
View from above orbital plane
View from above satellite
View from above satellite

Ground track
Ground track

The orbit data is extracted from the following two-line orbital elements,

1 34839U 09021A   14113.89852705  .00012226  00000-0  58750-3 0  5664
2 34839 097.2938 191.5641 0003210 087.9610 001.2798 15.18961246277478
Epoch (UTC): 23 April 2014 21:33:52
Eccentricity: 0.0003210
inclination: 97.2938°
perigee height: 507 km
apogee height: 511 km
right ascension of ascending node: 191.5641°
argument of perigee: 87.9610°
revolutions per day: 15.18961246
mean anomaly at epoch: 1.2798°
orbit number at epoch: 27747

The dashed part of the orbit path shows where the satellite is in the earth's shadow,  

DLR